User: anonymous   Login
Location: Northam
(31.6525°S, 116.6655°E)
Time: 09:41:09
(UTC+08:00)
Language:

STRAND 1 - Orbit

View from above orbital plane
View from above orbital plane
View from above satellite
View from above satellite

Ground track
Ground track

The orbit data is extracted from the following two-line orbital elements,

1 39090U 13009E   21206.54230245  .00000068  00000-0  38803-4 0  9990
2 39090  98.4255  47.8404 0009524 157.9280 202.2318 14.35173674440507
Epoch (UTC): 25 July 2021 13:00:54
Eccentricity: 0.0009524
inclination: 98.4255°
perigee height: 767 km
apogee height: 781 km
right ascension of ascending node: 47.8404°
argument of perigee: 157.9280°
revolutions per day: 14.35173674
mean anomaly at epoch: 202.2318°
orbit number at epoch: 44050

The dashed part of the orbit path shows where the satellite is in the earth's shadow,  

DLR